Theta_e
314 320 324 325 330 335 336 337 339 340 340 339 337 337 338 339 347 365 357 355 352 356 339 339 343 346 347 347 344 344 346 345 343 340 339 332 327 328 325 325 329 326 328 331 327 324 324 325 331
316 319 325 326 332 336 338 336 339 339 339 336 336 337 337 343 352 357 357 352 353 357 340 339 342 344 344 342 340 343 346 345 344 342 339 332 328 328 326 325 331 330 332 330 324 325 325 328 333
313 321 324 330 333 335 337 337 338 338 336 335 335 336 336 344 355 356 360 353 354 356 346 338 342 340 338 335 338 344 346 346 345 343 338 331 328 328 327 326 333 334 333 327 323 325 325 329 334
318 319 321 328 333 334 334 336 336 336 334 334 335 336 337 350 350 356 357 352 355 354 353 338 340 337 334 334 338 343 345 345 344 342 337 331 327 328 328 325 333 334 325 321 323 326 326 326 335
318 319 322 324 328 332 334 333 334 335 333 333 334 337 341 358 357 356 354 354 353 351 353 340 338 335 333 335 338 341 343 342 340 339 333 331 327 327 328 324 322 322 321 320 323 326 326 326 330
318 319 322 323 324 326 329 331 331 331 332 332 333 336 343 357 356 354 353 354 351 350 353 339 337 334 333 336 338 338 339 339 338 335 332 330 327 326 328 325 323 323 322 321 323 325 326 325 325
319 321 321 322 324 325 326 328 329 330 331 331 332 340 348 353 356 354 355 354 352 350 351 346 337 334 333 334 335 335 335 336 334 332 330 328 324 325 327 325 323 324 323 322 322 323 324 325 325
318 321 321 322 322 323 325 325 326 326 329 330 330 336 340 357 357 354 356 355 352 350 350 349 346 335 333 332 332 334 334 334 332 331 328 326 323 326 328 327 324 324 324 322 321 321 322 324 324
317 320 320 321 322 323 323 324 324 324 324 327 329 332 333 343 356 355 355 354 352 351 350 349 347 346 344 343 332 333 333 332 332 330 327 324 325 325 326 327 327 324 324 323 322 321 321 321 321
320 320 321 322 323 323 323 323 322 324 324 325 328 331 331 338 353 354 354 354 352 350 350 348 348 347 345 344 342 334 333 332 334 333 330 326 340 342 340 338 326 325 325 325 325 323 322 321 322
318 319 320 320 320 320 321 321 321 322 323 324 325 328 331 341 348 351 352 351 351 350 349 348 350 348 345 343 348 344 344 342 341 344 341 336 341 342 339 342 336 326 325 325 331 329 324 325 334
319 319 319 320 319 319 320 319 319 320 321 321 322 327 331 330 344 348 349 348 350 350 350 349 352 351 348 344 347 345 345 345 347 347 349 347 347 346 343 339 340 341 340 341 339 338 339 339 339
319 319 318 318 318 318 318 318 319 319 319 320 320 325 329 329 331 346 354 351 349 349 349 350 352 352 351 349 347 347 346 347 347 348 349 349 348 349 348 347 346 344 343 342 344 343 342 342 343
317 317 318 317 317 317 318 318 318 318 318 318 319 320 323 327 330 332 341 349 351 350 350 350 351 353 353 351 348 349 348 348 348 348 349 349 349 349 348 348 347 346 345 345 345 345 345 346 346
316 317 318 318 317 318 317 318 318 317 317 318 317 318 319 322 326 330 331 336 343 353 348 352 354 355 354 352 352 350 349 349 349 348 350 351 349 351 350 347 348 347 347 348 349 349 350 349 348
317 318 318 320 319 319 318 318 320 318 318 317 318 318 318 320 325 330 330 329 329 331 344 355 355 355 353 353 353 351 350 350 349 348 350 349 350 350 350 349 348 348 349 349 350 349 349 348 348
320 319 320 320 321 321 320 320 321 320 319 318 317 317 318 319 327 328 329 329 330 325 324 343 334 354 354 350 349 348 342 336 349 349 349 350 350 350 351 350 349 349 348 348 347 349 348 346 348
320 319 320 320 322 322 322 321 321 321 321 319 318 317 318 318 324 326 330 330 330 331 321 332 347 350 354 353 352 351 351 352 353 351 351 352 350 350 350 348 348 349 348 347 346 346 346 345 343
321 322 320 321 322 322 323 323 323 323 322 321 320 318 318 318 321 326 330 331 331 328 322 321 329 351 351 351 349 350 349 351 350 352 350 347 345 343 348 347 345 343 344 342 342 343 338 337 335
320 321 321 322 322 323 323 323 324 324 323 321 320 320 319 318 322 327 329 330 330 331 324 327 323 322 330 345 346 345 329 346 347 350 349 344 335 337 345 346 342 339 337 334 334 333 331 330 327
320 321 321 321 323 323 323 323 323 324 322 321 320 320 320 320 323 325 329 331 331 335 334 327 324 333 322 333 348 325 326 325 336 345 343 340 336 336 332 331 323 323 320 324 324 327 327 326 324
321 320 320 321 322 323 325 325 325 325 323 322 322 323 323 323 323 324 326 330 330 328 328 326 326 324 334 330 345 327 341 338 333 332 327 330 322 317 319 313 314 314 314 317 321 321 324 325 325
320 320 320 320 322 322 323 325 324 325 324 323 323 323 324 323 323 324 327 329 330 332 331 328 324 322 323 323 346 341 336 333 330 326 327 323 319 316 315 315 316 316 315 327 327 322 324 324 325
320 320 321 321 321 323 323 325 324 325 325 324 324 323 323 323 323 324 326 328 330 336 338 342 341 331 333 333 334 332 329 328 327 327 328 327 326 326 325 325 324 322 322 320 321 324 323 323 324
320 321 323 322 322 322 323 324 324 326 324 325 325 323 323 325 326 327 329 329 332 337 336 334 332 333 331 330 329 326 324 323 323 322 324 323 322 323 323 323 321 318 318 318 317 318 321 325 327
320 321 323 322 322 321 322 325 324 325 325 324 325 325 325 326 328 329 330 331 332 332 332 329 328 326 321 318 316 316 316 321 317 319 319 318 320 321 319 317 316 315 315 314 315 316 320 322 322
321 322 322 323 323 324 325 324 327 326 325 324 326 326 328 328 329 329 329 328 329 328 327 327 325 324 323 318 317 317 317 316 317 316 316 315 316 315 315 315 312 310 309 309 311 316 319 319 320
321 322 324 322 325 328 327 327 326 326 325 324 325 326 328 329 329 329 328 327 327 325 324 324 323 322 320 319 318 318 316 315 315 314 314 314 313 312 310 309 309 310 311 315 318 319 319 319 319
321 322 323 323 323 326 329 326 326 328 325 325 325 326 327 327 327 326 326 325 324 323 322 321 320 319 319 318 317 316 315 314 314 313 312 311 310 310 310 313 316 317 317 317 316 316 316 316 316
322 322 324 326 327 327 325 326 325 325 326 326 325 327 326 325 325 324 323 322 321 320 320 320 318 317 317 316 316 316 314 313 314 315 313 313 314 315 316 316 317 316 316 315 314 314 315 314 314
Wind_Speed
16 11 8 12 8 9 18 19 16 2 7 3 7 10 11 14 13 4 4 3 15 19 25 22 20 19 20 18 17 17 18 17 15 13 10 9 10 12 13 12 12 12 11 9 7 8 9 11 10
12 11 12 15 11 15 15 19 10 9 4 6 11 10 10 3 8 7 7 11 17 18 23 22 21 20 19 18 17 18 19 19 16 13 9 9 10 11 11 11 12 12 10 8 8 8 9 9 8
14 13 15 11 15 18 17 15 7 4 2 10 6 2 7 4 9 3 5 16 18 17 21 22 22 20 19 18 17 19 21 19 15 12 9 8 9 11 11 12 13 11 9 8 8 8 8 8 7
10 14 14 14 23 23 24 18 2 2 10 8 5 8 5 4 1 2 9 17 18 17 18 21 22 21 20 20 18 20 20 19 15 12 10 9 8 11 12 12 12 10 8 8 8 7 7 6 6
16 16 12 18 25 26 18 19 1 8 14 10 4 11 6 7 5 8 14 17 18 18 17 22 22 20 20 19 19 20 19 17 15 13 11 10 9 11 12 12 11 10 8 8 8 7 6 6 6
16 22 16 19 24 23 23 15 17 18 15 10 11 14 7 11 7 11 15 16 16 18 17 22 22 21 19 19 20 19 18 16 14 13 12 10 10 12 13 12 11 10 8 7 7 6 6 6 6
20 14 20 23 21 22 21 28 14 17 19 16 12 7 7 7 9 13 14 15 17 17 16 20 23 22 20 19 18 18 16 15 14 13 11 10 11 13 14 13 12 10 8 8 8 7 7 8 8
25 16 25 22 20 22 16 19 15 24 21 16 9 8 6 11 15 13 12 15 17 18 17 18 20 22 21 20 19 18 17 16 15 13 11 11 12 14 15 14 13 11 10 8 8 8 8 9 10
21 16 19 24 22 18 22 10 14 20 27 11 13 16 5 2 3 12 13 15 18 18 18 17 19 20 19 17 20 19 19 18 15 13 12 11 12 13 14 14 14 13 11 9 9 9 10 11 11
17 15 25 19 17 16 13 15 15 16 15 18 22 12 11 9 9 13 15 17 19 19 20 19 19 18 18 16 17 20 20 18 17 14 12 11 10 11 11 12 13 13 13 12 11 11 12 13 12
23 21 17 21 13 13 14 16 13 17 17 17 18 17 11 12 14 16 17 18 20 21 21 20 20 19 19 17 15 16 16 15 16 14 14 12 11 11 13 11 14 16 15 14 12 14 14 11 11
21 22 25 23 8 16 17 19 20 20 21 20 19 18 3 8 18 21 21 22 26 27 24 22 21 20 21 18 15 16 16 16 15 15 15 12 12 12 11 12 10 11 10 9 10 11 12 13 14
22 21 19 23 21 18 18 20 20 22 21 21 23 15 16 14 12 18 15 14 27 32 32 32 26 25 23 20 16 16 16 16 14 14 15 14 12 12 10 12 12 12 10 12 12 12 13 14 14
20 20 24 20 20 22 22 21 23 25 23 22 23 25 20 17 15 14 19 24 23 17 21 22 22 20 22 23 18 18 19 17 17 15 14 15 14 12 12 12 12 12 13 13 13 13 15 16 16
21 13 16 19 21 19 18 21 23 24 24 27 26 29 27 26 22 14 13 14 16 15 13 35 20 18 18 20 20 18 17 17 15 15 14 13 14 14 14 13 13 13 13 14 15 15 13 14 15
16 18 18 21 22 21 17 18 17 20 24 28 30 26 29 29 27 21 12 7 1 6 2 8 11 15 19 17 18 19 16 17 17 14 14 15 16 15 15 14 14 14 16 16 15 13 14 15 17
16 18 21 20 10 12 16 15 14 15 17 19 28 27 31 32 25 23 18 14 7 5 8 7 6 6 11 11 15 16 16 17 7 12 13 14 12 16 15 14 17 19 18 15 13 14 15 18 18
20 19 20 17 16 11 14 18 14 17 13 16 21 26 29 34 32 27 26 18 12 9 8 9 3 8 9 10 10 10 14 13 12 14 13 12 16 19 20 15 12 12 11 9 11 14 13 14 18
20 19 19 15 12 7 12 14 16 15 15 14 17 24 26 32 34 28 25 16 13 12 9 6 4 7 8 10 12 10 8 8 8 10 13 15 11 8 10 10 7 10 8 11 14 11 14 16 18
20 13 10 8 10 8 12 14 14 12 9 13 17 18 25 30 32 27 25 20 24 13 17 7 6 5 9 7 11 13 8 6 10 12 10 11 12 11 12 7 9 11 13 12 14 16 16 18 18
18 17 16 14 15 13 13 17 18 15 10 11 11 17 20 25 30 32 28 30 19 13 13 9 6 8 19 13 13 14 18 22 19 15 12 9 11 12 12 12 12 13 16 11 13 15 16 19 18
18 18 15 12 11 12 11 13 10 12 11 11 15 16 19 21 21 21 23 27 24 34 33 20 18 21 20 16 16 18 13 11 12 11 9 8 11 10 10 10 11 14 14 13 17 19 20 20 22
16 12 15 16 15 15 17 9 10 10 11 13 15 19 17 17 18 19 21 22 20 19 19 32 35 27 21 21 19 14 11 12 9 8 12 11 9 9 11 12 14 17 19 16 21 25 26 25 27
14 13 11 12 13 15 19 15 12 6 8 10 15 19 18 11 14 23 17 15 16 14 17 21 26 31 26 25 21 18 19 14 9 10 5 5 6 8 11 11 16 18 23 24 26 27 32 34 34
15 11 10 12 13 14 18 16 5 12 4 4 4 15 12 8 8 14 14 15 15 19 18 20 23 24 24 23 22 20 21 19 15 12 5 11 11 9 11 18 25 27 28 31 34 35 36 35 36
23 18 12 17 14 15 19 10 3 14 9 7 8 7 11 14 16 17 19 20 20 19 16 17 18 17 19 19 17 15 13 5 11 9 14 13 13 16 21 28 31 34 36 37 37 36 33 33 35
19 20 18 19 13 9 8 9 13 13 10 10 12 12 13 14 16 19 19 19 19 19 16 15 14 13 11 11 10 9 10 12 12 16 20 21 22 25 28 32 36 38 39 39 40 35 33 34 34
21 19 17 12 13 15 12 13 11 19 16 12 12 11 13 17 19 19 19 18 16 15 14 13 11 9 7 5 5 6 11 14 17 21 24 26 28 31 34 36 36 36 36 34 31 28 28 29 29
18 16 14 13 13 10 10 8 13 9 6 12 12 15 16 18 17 17 17 16 15 13 10 9 6 4 2 2 6 10 14 17 20 23 24 26 28 30 32 31 29 28 27 28 29 31 31 30 32
21 20 18 10 11 10 11 2 10 7 7 11 15 20 15 18 18 18 16 14 12 10 7 4 2 0 3 5 8 11 14 17 19 21 23 25 26 27 25 25 26 27 26 28 29 28 28 30 32
Wind_Direction
235 243 278 266 248 233 254 249 251 309 206 138 322 277 323 316 321 65 111 137 148 156 164 167 170 174 174 181 184 191 187 182 177 170 161 145 144 150 152 149 147 150 152 154 151 140 130 123 117
221 235 239 261 240 245 243 238 234 239 322 355 275 259 260 262 46 85 143 136 150 156 164 170 169 173 172 176 182 191 187 183 180 174 166 154 153 157 159 162 160 159 162 164 160 148 137 133 125
206 215 241 224 238 247 253 249 226 201 348 262 281 288 308 350 67 60 158 150 158 156 161 172 170 172 171 170 179 188 184 185 183 180 173 167 165 169 170 169 170 171 176 178 169 157 148 146 146
198 214 240 248 239 232 253 268 228 314 230 237 274 267 208 61 9 127 153 153 160 159 160 169 171 172 171 165 168 181 183 184 186 188 183 180 181 182 182 178 179 185 191 185 177 172 166 167 172
212 229 230 227 239 253 259 260 288 243 279 268 286 277 216 125 121 145 151 159 159 160 170 172 173 174 173 168 169 178 183 188 192 192 189 194 195 192 192 188 188 192 194 191 189 187 188 195 201
214 227 239 234 241 233 245 233 256 259 263 272 263 248 247 125 126 152 154 162 164 164 174 176 175 177 176 175 176 180 186 194 197 195 197 203 206 200 196 194 194 195 197 200 204 209 213 222 229
229 218 237 247 254 238 228 232 218 240 249 248 266 287 100 180 157 165 164 167 170 170 172 176 178 179 181 182 184 185 190 195 196 201 206 212 210 202 199 199 199 202 205 209 214 222 231 238 243
229 251 247 242 252 253 251 229 219 247 253 242 258 244 284 82 156 173 177 177 176 175 175 175 175 183 184 186 187 188 188 192 196 203 211 212 206 203 204 206 208 212 216 221 226 233 243 251 256
223 245 241 243 245 248 254 239 232 253 249 248 244 228 309 329 145 180 188 185 181 181 180 179 181 181 179 187 190 189 188 191 196 203 204 205 202 206 211 212 217 221 226 233 240 248 254 260 266
224 228 242 245 257 262 249 250 252 245 236 236 243 222 249 237 206 197 198 194 189 185 185 184 183 183 180 187 200 191 194 196 199 203 205 200 188 211 203 231 232 231 236 243 251 259 262 265 270
220 241 242 246 260 274 281 263 248 247 248 231 225 231 207 220 216 211 207 203 196 191 188 187 183 183 183 186 200 187 193 194 199 199 209 187 201 208 203 223 247 240 242 254 267 276 268 273 257
231 240 245 262 244 240 256 262 261 249 250 254 244 239 228 235 231 215 215 210 199 188 188 187 184 185 184 188 193 189 194 194 197 201 202 197 198 213 209 218 229 245 238 252 240 246 252 250 254
232 239 238 244 253 247 250 250 255 249 247 246 252 232 224 249 253 248 236 237 211 178 183 186 183 183 187 183 195 193 196 199 198 202 208 200 210 215 226 221 224 231 239 242 249 247 250 256 266
238 237 253 246 243 245 249 254 251 245 245 243 246 251 239 240 243 241 251 245 232 190 199 182 180 187 188 183 193 196 199 203 197 201 208 207 207 219 225 235 236 238 238 240 247 254 257 261 264
239 250 245 243 241 243 251 256 254 257 250 236 235 241 242 237 238 218 224 255 246 222 200 211 154 182 196 192 192 202 208 200 202 201 204 212 223 218 222 230 237 238 241 239 242 246 260 268 273
228 232 247 231 216 228 227 255 254 240 238 239 235 236 237 230 227 219 197 193 198 251 74 115 169 196 201 201 201 204 206 211 201 202 212 217 219 222 239 230 225 235 230 233 238 250 265 272 274
217 234 222 243 178 218 197 248 245 248 241 237 237 229 240 226 219 221 189 170 157 79 67 122 172 212 213 204 223 217 233 250 249 202 220 239 218 229 223 227 229 233 237 246 254 258 266 271 273
215 217 251 214 173 190 234 234 255 266 239 240 239 231 235 226 217 214 208 177 156 153 80 66 115 189 205 201 186 204 213 216 210 212 210 222 237 235 226 232 238 252 259 272 263 270 273 274 277
239 228 223 205 223 208 247 260 258 258 252 239 234 231 234 227 215 207 211 176 174 172 139 84 70 185 189 212 203 200 202 246 225 224 223 225 246 288 278 258 285 299 279 259 253 266 277 279 284
248 245 227 241 236 233 270 260 260 256 250 246 246 233 232 219 212 206 209 211 226 202 213 193 216 283 244 246 246 219 244 208 252 231 234 231 237 224 245 240 228 241 241 252 269 274 282 279 280
228 226 226 240 211 213 267 260 247 239 227 219 245 227 216 203 210 220 206 206 178 174 169 169 208 251 255 244 227 225 221 239 228 218 216 190 183 195 216 232 254 251 268 278 274 278 278 280 284
217 219 246 248 253 251 275 253 194 211 188 209 212 220 222 194 211 212 206 200 218 224 235 254 259 255 239 251 233 225 223 220 222 217 202 199 221 234 242 262 265 279 284 276 266 279 281 277 279
229 212 222 224 231 256 255 235 287 166 199 198 212 213 220 221 217 199 185 186 185 186 204 214 219 214 227 235 214 215 187 194 185 183 210 223 244 251 256 263 269 276 274 271 268 269 273 271 276
218 230 238 244 242 237 243 252 235 174 230 192 191 207 212 209 207 194 185 180 172 165 172 172 182 200 207 211 174 178 189 172 186 193 207 233 253 287 300 286 271 273 275 280 281 279 276 276 272
205 214 213 212 219 235 232 226 226 155 235 110 235 181 185 190 175 136 156 178 177 162 164 166 182 180 181 185 189 188 193 201 201 215 249 242 248 268 263 260 274 282 282 282 281 277 271 267 268
211 209 230 209 210 225 224 227 247 141 109 105 115 157 164 176 160 154 150 150 153 158 159 156 151 146 160 174 187 199 203 219 233 251 245 266 277 279 274 282 284 285 286 283 280 278 275 268 265
192 214 231 264 294 266 328 228 126 157 176 155 142 153 161 151 151 144 144 144 149 151 155 154 148 142 147 175 195 222 237 245 256 272 282 288 286 286 285 282 284 284 283 284 284 282 276 274 275
240 204 208 234 238 253 178 223 273 170 170 173 156 165 148 143 140 143 143 144 146 148 149 147 142 134 155 179 221 246 270 284 284 289 290 290 287 287 288 287 286 286 285 283 280 279 278 278 279
202 220 233 229 232 234 261 213 94 9 178 159 165 153 157 145 146 153 153 153 153 152 147 130 125 130 158 228 266 280 284 288 290 289 288 289 288 287 288 289 287 285 284 284 282 279 280 282 283
200 208 223 200 218 276 267 139 297 150 289 172 154 144 158 162 154 152 152 154 154 149 144 137 132 248 295 296 293 293 291 294 293 290 290 290 289 288 288 286 284 284 284 280 280 282 282 279 280